| time (UTC) | temp F | wind direction | speed MPH | gust MPH | rain 1hr in | rain 24hr in | rain mn in | humidity % | barometer mb |
| 20260902235029 | 79 | 141 | 3.0 | 10.0 | 0.00 | 0.00 | 0.00 | 44 | 1021.2 |
| 20260902234528 | 80 | 264 | 3.0 | 10.0 | 0.00 | 0.00 | 0.00 | 42 | 1021.3 |
| 20260902234028 | 80 | 252 | 2.0 | 9.0 | 0.00 | 0.00 | 0.00 | 44 | 1021.3 |
| 20260902233528 | 79 | 212 | 2.0 | 8.0 | 0.00 | 0.00 | 0.00 | 45 | 1021.3 |
| 20260902233023 | 79 | 241 | 2.0 | 8.0 | 0.00 | 0.00 | 0.00 | 47 | 1021.3 |
| 20260902232523 | 78 | 160 | 2.0 | 8.0 | 0.00 | 0.00 | 0.00 | 47 | 1021.3 |
| 20260902232026 | 78 | 227 | 3.0 | 8.0 | 0.00 | 0.00 | 0.00 | 48 | 1021.5 |
| 20260902231524 | 78 | 266 | 3.0 | 9.0 | 0.00 | 0.00 | 0.00 | 47 | 1021.5 |
| 20260902231024 | 79 | 276 | 3.0 | 9.0 | 0.00 | 0.00 | 0.00 | 45 | 1021.5 |
| 20260902230525 | 79 | 252 | 3.0 | 10.0 | 0.00 | 0.00 | 0.00 | 45 | 1021.5 |
| 20260902230019 | 79 | 243 | 3.0 | 11.0 | 0.00 | 0.00 | 0.00 | 46 | 1021.7 |
| 20260902225520 | 79 | 231 | 3.0 | 11.0 | 0.00 | 0.00 | 0.00 | 47 | 1021.7 |
| 20260902225020 | 79 | 162 | 3.0 | 10.0 | 0.00 | 0.00 | 0.00 | 47 | 1021.7 |
| 20260902224519 | 80 | 226 | 2.0 | 10.0 | 0.00 | 0.00 | 0.00 | 46 | 1021.8 |
| 20260902224021 | 79 | 248 | 3.0 | 10.0 | 0.00 | 0.00 | 0.00 | 48 | 1021.8 |
| 20260902223521 | 78 | 271 | 4.0 | 10.0 | 0.00 | 0.00 | 0.00 | 47 | 1021.8 |
| 20260902223246 | 78 | 264 | 3.0 | 10.0 | 0.00 | 0.00 | 0.00 | 48 | 1021.9 |
| 20260902222517 | 78 | 206 | 2.0 | 8.0 | 0.00 | 0.00 | 0.00 | 48 | 1021.8 |
| 20260902222016 | 77 | 256 | 2.0 | 8.0 | 0.00 | 0.00 | 0.00 | 50 | 1022.0 |
| 20260902221517 | 78 | 245 | 3.0 | 9.0 | 0.00 | 0.00 | 0.00 | 50 | 1021.9 |
| 20260902221017 | 78 | 251 | 4.0 | 15.0 | 0.00 | 0.00 | 0.00 | 49 | 1022.0 |
| 20260902220518 | 78 | 231 | 4.0 | 15.0 | 0.00 | 0.00 | 0.00 | 51 | 1021.9 |
| 20260902220014 | 78 | 213 | 3.0 | 13.0 | 0.00 | 0.00 | 0.00 | 49 | 1022.2 |
| 20260902215512 | 78 | 235 | 3.0 | 13.0 | 0.00 | 0.00 | 0.00 | 50 | 1022.2 |
| 20260902215012 | 78 | 271 | 3.0 | 9.0 | 0.00 | 0.00 | 0.00 | 51 | 1022.0 |
| 20260902214513 | 78 | 157 | 3.0 | 9.0 | 0.00 | 0.00 | 0.00 | 50 | 1022.3 |
| 20260902214013 | 78 | 261 | 3.0 | 10.0 | 0.00 | 0.00 | 0.00 | 49 | 1022.3 |
| 20260902213513 | 78 | 256 | 3.0 | 10.0 | 0.00 | 0.00 | 0.00 | 48 | 1022.3 |
| 20260902213008 | 78 | 234 | 3.0 | 10.0 | 0.00 | 0.00 | 0.00 | 52 | 1022.4 |
| 20260902212508 | 77 | 227 | 3.0 | 14.0 | 0.00 | 0.00 | 0.00 | 54 | 1022.4 |
| 20260902211508 | 78 | 230 | 4.0 | 15.0 | 0.00 | 0.00 | 0.00 | 53 | 1022.5 |
| 20260902211008 | 78 | 264 | 4.0 | 15.0 | 0.00 | 0.00 | 0.00 | 54 | 1022.5 |
| 20260902210509 | 77 | 189 | 4.0 | 12.0 | 0.00 | 0.00 | 0.00 | 54 | 1022.6 |
| 20260902210004 | 77 | 227 | 4.0 | 13.0 | 0.00 | 0.00 | 0.00 | 54 | 1022.8 |
| 20260902205504 | 76 | 261 | 3.0 | 13.0 | 0.00 | 0.00 | 0.00 | 55 | 1022.9 |
| 20260902205004 | 76 | 321 | 3.0 | 10.0 | 0.00 | 0.00 | 0.00 | 57 | 1022.9 |
| 20260902204504 | 75 | 265 | 2.0 | 13.0 | 0.00 | 0.00 | 0.00 | 57 | 1022.9 |
| 20260902204005 | 76 | 244 | 2.0 | 13.0 | 0.00 | 0.00 | 0.00 | 54 | 1022.9 |
| 20260902203505 | 76 | 247 | 3.0 | 14.0 | 0.00 | 0.00 | 0.00 | 55 | 1023.0 |
| 20260902203231 | 76 | 254 | 4.0 | 14.0 | 0.00 | 0.00 | 0.00 | 54 | 1023.0 |
| 20260902202501 | 77 | 222 | 4.0 | 12.0 | 0.00 | 0.00 | 0.00 | 53 | 1023.1 |
| 20260902202001 | 76 | 304 | 3.0 | 12.0 | 0.00 | 0.00 | 0.00 | 54 | 1023.1 |
| 20260902201500 | 76 | 251 | 3.0 | 9.0 | 0.00 | 0.00 | 0.00 | 56 | 1023.0 |
| 20260902201000 | 76 | 164 | 3.0 | 9.0 | 0.00 | 0.00 | 0.00 | 56 | 1023.1 |
| 20260902200501 | 75 | 267 | 2.0 | 10.0 | 0.00 | 0.00 | 0.00 | 57 | 1023.2 |
| 20260902200001 | 75 | 147 | 2.0 | 13.0 | 0.00 | 0.00 | 0.00 | 55 | 1023.2 |
| 20260902195500 | 75 | 250 | 2.0 | 13.0 | 0.00 | 0.00 | 0.00 | 57 | 1023.4 |
| 20260902195001 | 76 | 230 | 3.0 | 13.0 | 0.00 | 0.00 | 0.00 | 55 | 1023.5 |
| 20260902194458 | 76 | 247 | 3.0 | 13.0 | 0.00 | 0.00 | 0.00 | 57 | 1023.5 |
| 20260902194231 | 75 | 232 | 2.0 | 10.0 | 0.00 | 0.00 | 0.00 | 57 | 1023.5 |
| 20260902193459 | 75 | 152 | 3.0 | 7.0 | 0.00 | 0.00 | 0.00 | 55 | 1023.6 |
| 20260902192453 | 76 | 247 | 3.0 | 14.0 | 0.00 | 0.00 | 0.00 | 54 | 1023.7 |
| 20260902191950 | 77 | 157 | 3.0 | 16.0 | 0.00 | 0.00 | 0.00 | 55 | 1023.7 |
| 20260902191449 | 76 | 220 | 4.0 | 16.0 | 0.00 | 0.00 | 0.00 | 57 | 1023.7 |
| 20260902190950 | 76 | 273 | 4.0 | 12.0 | 0.00 | 0.00 | 0.00 | 55 | 1023.7 |
| 20260902190451 | 76 | 246 | 4.0 | 12.0 | 0.00 | 0.00 | 0.00 | 56 | 1023.8 |
| 20260902185953 | 76 | 174 | 3.0 | 8.0 | 0.00 | 0.00 | 0.00 | 55 | 1023.8 |
| 20260902185447 | 75 | 162 | 2.0 | 8.0 | 0.00 | 0.00 | 0.00 | 56 | 1023.9 |
| 20260902184947 | 75 | 148 | 3.0 | 8.0 | 0.00 | 0.00 | 0.00 | 58 | 1023.9 |
| 20260902184445 | 75 | 267 | 2.0 | 8.0 | 0.00 | 0.00 | 0.00 | 56 | 1024.1 |
| 20260902182942 | 75 | 271 | 2.0 | 12.0 | 0.00 | 0.00 | 0.00 | 54 | 1024.2 |
| 20260902181943 | 76 | 152 | 3.0 | 14.0 | 0.00 | 0.00 | 0.00 | 57 | 1024.3 |
| 20260902181442 | 76 | 255 | 3.0 | 14.0 | 0.00 | 0.00 | 0.00 | 55 | 1024.3 |
| 20260902180942 | 76 | 244 | 3.0 | 14.0 | 0.00 | 0.00 | 0.00 | 56 | 1024.4 |
| 20260902180443 | 75 | 197 | 3.0 | 14.0 | 0.00 | 0.00 | 0.00 | 54 | 1024.4 |
| 20260902175943 | 75 | 148 | 3.0 | 9.0 | 0.00 | 0.00 | 0.00 | 57 | 1024.4 |
| 20260902175443 | 75 | 200 | 4.0 | 9.0 | 0.00 | 0.00 | 0.00 | 56 | 1024.5 |
| 20260902174943 | 75 | 255 | 3.0 | 9.0 | 0.00 | 0.00 | 0.00 | 58 | 1024.7 |
| 20260902174442 | 75 | 169 | 3.0 | 6.0 | 0.00 | 0.00 | 0.00 | 57 | 1024.7 |
| 20260902173942 | 75 | 112 | 3.0 | 6.0 | 0.00 | 0.00 | 0.00 | 60 | 1024.5 |
| 20260902173443 | 74 | 143 | 2.0 | 8.0 | 0.00 | 0.00 | 0.00 | 60 | 1024.4 |
| 20260902172944 | 74 | 126 | 2.0 | 8.0 | 0.00 | 0.00 | 0.00 | 58 | 1024.7 |
| 20260902172443 | 75 | 168 | 2.0 | 7.0 | 0.00 | 0.00 | 0.00 | 57 | 1024.7 |
| 20260902171937 | 75 | 195 | 3.0 | 7.0 | 0.00 | 0.00 | 0.00 | 55 | 1024.7 |
| 20260902171702 | 75 | 285 | 3.0 | 8.0 | 0.00 | 0.00 | 0.00 | 54 | 1024.5 |
| 20260902170933 | 75 | 230 | 3.0 | 10.0 | 0.00 | 0.00 | 0.00 | 55 | 1024.5 |
| 20260902170431 | 75 | 235 | 3.0 | 10.0 | 0.00 | 0.00 | 0.00 | 56 | 1024.5 |
| 20260902170202 | 75 | 133 | 3.0 | 9.0 | 0.00 | 0.00 | 0.00 | 54 | 1024.8 |
| 20260902164931 | 74 | 238 | 2.0 | 9.0 | 0.00 | 0.00 | 0.00 | 56 | 1024.5 |
| 20260902164425 | 74 | 234 | 2.0 | 8.0 | 0.00 | 0.00 | 0.00 | 57 | 1024.5 |
| 20260902163421 | 75 | 227 | 2.0 | 12.0 | 0.00 | 0.00 | 0.00 | 55 | 1024.5 |
| 20260902162919 | 75 | 148 | 2.0 | 12.0 | 0.00 | 0.00 | 0.00 | 57 | 1024.3 |
| 20260902162419 | 74 | 279 | 4.0 | 13.0 | 0.00 | 0.00 | 0.00 | 57 | 1024.3 |
| 20260902161915 | 74 | 147 | 4.0 | 13.0 | 0.00 | 0.00 | 0.00 | 57 | 1024.3 |
| 20260902161416 | 74 | 255 | 3.0 | 13.0 | 0.00 | 0.00 | 0.00 | 56 | 1024.3 |
| 20260902160917 | 74 | 155 | 4.0 | 8.0 | 0.00 | 0.00 | 0.00 | 59 | 1024.2 |
| 20260902160415 | 73 | 227 | 3.0 | 8.0 | 0.00 | 0.00 | 0.00 | 60 | 1024.2 |
| 20260902155913 | 74 | 84 | 2.0 | 9.0 | 0.00 | 0.00 | 0.00 | 60 | 1024.2 |
| 20260902155414 | 74 | 196 | 2.0 | 9.0 | 0.00 | 0.00 | 0.00 | 62 | 1024.2 |
| 20260902154906 | 74 | 231 | 2.0 | 9.0 | 0.00 | 0.00 | 0.00 | 61 | 1024.1 |
| 20260902154637 | 73 | 172 | 2.0 | 9.0 | 0.00 | 0.00 | 0.00 | 62 | 1024.1 |
| 20260902153906 | 73 | 143 | 2.0 | 9.0 | 0.00 | 0.00 | 0.00 | 62 | 1024.1 |
| 20260902153407 | 73 | 215 | 1.0 | 5.0 | 0.00 | 0.00 | 0.00 | 66 | 1024.1 |
| 20260902152907 | 73 | 235 | 1.0 | 5.0 | 0.00 | 0.00 | 0.00 | 66 | 1024.1 |
| 20260902152407 | 73 | 124 | 1.0 | 5.0 | 0.00 | 0.00 | 0.00 | 66 | 1024.1 |
| 20260902151901 | 72 | 152 | 1.0 | 9.0 | 0.00 | 0.00 | 0.00 | 68 | 1024.1 |
| 20260902151400 | 72 | 227 | 1.0 | 9.0 | 0.00 | 0.00 | 0.00 | 69 | 1024.1 |
| 20260902150901 | 71 | 154 | 1.0 | 7.0 | 0.00 | 0.00 | 0.00 | 71 | 1024.1 |
| 20260902150401 | 71 | 138 | 0.0 | 4.0 | 0.00 | 0.00 | 0.00 | 71 | 1024.1 |
| 20260902145901 | 70 | 135 | 1.0 | 5.0 | 0.00 | 0.00 | 0.00 | 74 | 1023.9 |
| 20260902145401 | 70 | 122 | 1.0 | 5.0 | 0.00 | 0.00 | 0.00 | 76 | 1023.9 |
| 20260902144859 | 69 | 161 | 1.0 | 4.0 | 0.00 | 0.00 | 0.00 | 76 | 1023.9 |
| 20260902144355 | 68 | 71 | 2.0 | 5.0 | 0.00 | 0.00 | 0.00 | 78 | 1023.8 |
| 20260902143855 | 68 | 98 | 1.0 | 5.0 | 0.00 | 0.00 | 0.00 | 80 | 1023.8 |
| 20260902143627 | 67 | 105 | 1.0 | 4.0 | 0.00 | 0.00 | 0.00 | 81 | 1023.8 |
| 20260902142856 | 66 | 102 | 1.0 | 4.0 | 0.00 | 0.00 | 0.00 | 83 | 1023.8 |
| 20260902142628 | 65 | 119 | 2.0 | 4.0 | 0.00 | 0.00 | 0.00 | 85 | 1023.8 |
| 20260902141848 | 64 | 100 | 1.0 | 4.0 | 0.00 | 0.00 | 0.00 | 89 | 1023.7 |
| 20260902141345 | 62 | 125 | 0.0 | 3.0 | 0.00 | 0.00 | 0.00 | 93 | 1023.7 |
| 20260902140845 | 61 | 88 | 1.0 | 3.0 | 0.00 | 0.00 | 0.00 | 94 | 1023.6 |
| 20260902140343 | 60 | 129 | 1.0 | 3.0 | 0.00 | 0.00 | 0.00 | 94 | 1023.6 |
| 20260902135845 | 59 | 186 | 0.0 | 3.0 | 0.00 | 0.00 | 0.00 | 93 | 1023.6 |
| 20260902135336 | 59 | 168 | 0.0 | 1.0 | 0.00 | 0.00 | 0.00 | 94 | 1023.5 |
| 20260902134837 | 59 | 111 | 0.0 | 1.0 | 0.00 | 0.00 | 0.00 | 94 | 1023.6 |
| 20260902134336 | 58 | 110 | 0.0 | 1.0 | 0.00 | 0.00 | 0.00 | 94 | 1023.5 |
| 20260902133837 | 58 | 111 | 0.0 | 1.0 | 0.00 | 0.00 | 0.00 | 94 | 1023.5 |
| 20260902133337 | 58 | 110 | 0.0 | 1.0 | 0.00 | 0.00 | 0.00 | 93 | 1023.4 |
| 20260902132838 | 58 | 110 | 0.0 | 1.0 | 0.00 | 0.00 | 0.00 | 93 | 1023.4 |
| 20260902132332 | 58 | 110 | 0.0 | 1.0 | 0.00 | 0.00 | 0.00 | 93 | 1023.4 |
| 20260902131833 | 58 | 111 | 0.0 | 1.0 | 0.00 | 0.00 | 0.00 | 93 | 1023.4 |
| 20260902131332 | 58 | 110 | 0.0 | 1.0 | 0.00 | 0.00 | 0.00 | 93 | 1023.2 |
| 20260902130833 | 58 | 110 | 0.0 | 1.0 | 0.00 | 0.00 | 0.00 | 92 | 1023.2 |
| 20260902130331 | 58 | 110 | 0.0 | 1.0 | 0.00 | 0.00 | 0.00 | 92 | 1023.2 |
| 20260902130103 | 58 | 110 | 0.0 | 1.0 | 0.00 | 0.00 | 0.00 | 92 | 1023.1 |
| 20260902125328 | 58 | 110 | 0.0 | 1.0 | 0.00 | 0.00 | 0.00 | 92 | 1023.1 |
| 20260902124828 | 59 | 110 | 0.0 | 1.0 | 0.00 | 0.00 | 0.00 | 92 | 1023.1 |
| 20260902124330 | 59 | 110 | 0.0 | 1.0 | 0.00 | 0.00 | 0.00 | 92 | 1023.1 |
| 20260902123827 | 59 | 110 | 0.0 | 1.0 | 0.00 | 0.00 | 0.00 | 92 | 1023.0 |
| 20260902123325 | 59 | 111 | 0.0 | 0.0 | 0.00 | 0.00 | 0.00 | 92 | 1023.0 |
| 20260902122826 | 59 | 111 | 0.0 | 0.0 | 0.00 | 0.00 | 0.00 | 92 | 1022.9 |
| 20260902122319 | 59 | 110 | 0.0 | 1.0 | 0.00 | 0.00 | 0.00 | 92 | 1022.9 |
| 20260902121817 | 60 | 110 | 0.0 | 1.0 | 0.00 | 0.00 | 0.00 | 92 | 1022.9 |
| 20260902121315 | 60 | 110 | 0.0 | 1.0 | 0.00 | 0.00 | 0.00 | 93 | 1022.9 |
| 20260902120813 | 59 | 110 | 0.0 | 1.0 | 0.00 | 0.00 | 0.00 | 94 | 1022.9 |
| 20260902120315 | 59 | 112 | 0.0 | 0.0 | 0.00 | 0.00 | 0.00 | 94 | 1022.9 |
| 20260902115807 | 59 | 112 | 0.0 | 0.0 | 0.00 | 0.00 | 0.00 | 94 | 1022.9 |
| 20260902115310 | 59 | 112 | 0.0 | 0.0 | 0.00 | 0.00 | 0.00 | 94 | 1022.9 |
| 20260902114806 | 59 | 112 | 0.0 | 0.0 | 0.00 | 0.00 | 0.00 | 94 | 1022.8 |
| 20260902114307 | 59 | 113 | 0.0 | 0.0 | 0.00 | 0.00 | 0.00 | 94 | 1022.9 |
| 20260902113807 | 59 | 112 | 0.0 | 0.0 | 0.00 | 0.00 | 0.00 | 94 | 1022.8 |
| 20260902113307 | 58 | 112 | 0.0 | 0.0 | 0.00 | 0.00 | 0.00 | 94 | 1022.9 |
| 20260902112802 | 58 | 113 | 0.0 | 0.0 | 0.00 | 0.00 | 0.00 | 95 | 1022.9 |
| 20260902112300 | 58 | 112 | 0.0 | 0.0 | 0.00 | 0.00 | 0.00 | 95 | 1022.8 |
| 20260902111802 | 58 | 113 | 0.0 | 0.0 | 0.00 | 0.00 | 0.00 | 94 | 1022.8 |
| 20260902111301 | 57 | 112 | 0.0 | 0.0 | 0.00 | 0.00 | 0.00 | 95 | 1022.9 |
| 20260902110802 | 57 | 112 | 0.0 | 0.0 | 0.00 | 0.00 | 0.00 | 94 | 1022.9 |
| 20260902110301 | 57 | 112 | 0.0 | 0.0 | 0.00 | 0.00 | 0.00 | 94 | 1022.9 |
| 20260902110026 | 57 | 112 | 0.0 | 0.0 | 0.00 | 0.00 | 0.00 | 94 | 1022.9 |
| 20260902105253 | 57 | 112 | 0.0 | 0.0 | 0.00 | 0.00 | 0.00 | 94 | 1022.9 |
| 20260902104751 | 57 | 112 | 0.0 | 1.0 | 0.00 | 0.00 | 0.00 | 94 | 1023.0 |
| 20260902104249 | 57 | 112 | 0.0 | 1.0 | 0.00 | 0.00 | 0.00 | 94 | 1023.0 |
| 20260902104021 | 57 | 112 | 0.0 | 1.0 | 0.00 | 0.00 | 0.00 | 94 | 1023.0 |
| 20260902102746 | 56 | 113 | 0.0 | 1.0 | 0.00 | 0.00 | 0.00 | 94 | 1023.0 |
| 20260902102244 | 57 | 112 | 0.0 | 1.0 | 0.00 | 0.00 | 0.00 | 93 | 1023.1 |
| 20260902102017 | 57 | 112 | 0.0 | 1.0 | 0.00 | 0.00 | 0.00 | 94 | 1023.1 |
| 20260902101515 | 57 | 112 | 0.0 | 1.0 | 0.00 | 0.00 | 0.00 | 94 | 1023.1 |
| 20260902100745 | 56 | 112 | 0.0 | 1.0 | 0.00 | 0.00 | 0.00 | 93 | 1023.1 |
| 20260902100241 | 56 | 112 | 0.0 | 1.0 | 0.00 | 0.00 | 0.00 | 93 | 1023.1 |
| 20260902095739 | 56 | 112 | 0.0 | 1.0 | 0.00 | 0.00 | 0.00 | 93 | 1023.1 |
| 20260902095239 | 56 | 112 | 0.0 | 0.0 | 0.00 | 0.00 | 0.00 | 93 | 1023.1 |
| 20260902094739 | 57 | 112 | 0.0 | 0.0 | 0.00 | 0.00 | 0.00 | 93 | 1023.2 |
| 20260902094508 | 57 | 112 | 0.0 | 0.0 | 0.00 | 0.00 | 0.00 | 93 | 1023.2 |
| 20260902093738 | 57 | 112 | 0.0 | 1.0 | 0.00 | 0.00 | 0.00 | 93 | 1023.1 |
| 20260902093232 | 57 | 112 | 0.0 | 1.0 | 0.00 | 0.00 | 0.00 | 93 | 1023.1 |
| 20260902092732 | 57 | 112 | 0.0 | 1.0 | 0.00 | 0.00 | 0.00 | 92 | 1023.0 |
| 20260902092233 | 57 | 112 | 0.0 | 1.0 | 0.00 | 0.00 | 0.00 | 93 | 1023.0 |
| 20260902091733 | 57 | 112 | 0.0 | 0.0 | 0.00 | 0.00 | 0.00 | 92 | 1023.0 |
| 20260902091231 | 57 | 112 | 0.0 | 3.0 | 0.00 | 0.00 | 0.00 | 92 | 1023.1 |
| 20260902090731 | 58 | 112 | 0.0 | 3.0 | 0.00 | 0.00 | 0.00 | 92 | 1023.1 |
| 20260902090225 | 58 | 113 | 1.0 | 3.0 | 0.00 | 0.00 | 0.00 | 92 | 1023.0 |
| 20260902085723 | 58 | 123 | 1.0 | 3.0 | 0.00 | 0.00 | 0.00 | 93 | 1023.1 |
| 20260902085451 | 58 | 100 | 1.0 | 3.0 | 0.00 | 0.00 | 0.00 | 93 | 1023.1 |
| 20260902084719 | 57 | 115 | 0.0 | 1.0 | 0.00 | 0.00 | 0.00 | 93 | 1023.2 |
| 20260902084219 | 57 | 115 | 0.0 | 1.0 | 0.00 | 0.00 | 0.00 | 92 | 1023.2 |
| 20260902083713 | 57 | 115 | 0.0 | 1.0 | 0.00 | 0.00 | 0.00 | 92 | 1023.4 |
| 20260902083211 | 57 | 115 | 0.0 | 2.0 | 0.00 | 0.00 | 0.00 | 92 | 1023.4 |
| 20260902082709 | 57 | 115 | 0.0 | 2.0 | 0.00 | 0.00 | 0.00 | 92 | 1023.2 |
| 20260902082207 | 57 | 148 | 0.0 | 2.0 | 0.00 | 0.00 | 0.00 | 92 | 1023.4 |
| 20260902081159 | 57 | 148 | 0.0 | 2.0 | 0.00 | 0.00 | 0.00 | 92 | 1023.2 |
| 20260902080701 | 57 | 149 | 0.0 | 2.0 | 0.00 | 0.00 | 0.00 | 92 | 1023.2 |
| 20260902080431 | 57 | 149 | 0.0 | 2.0 | 0.00 | 0.00 | 0.00 | 92 | 1023.4 |
| 20260902075933 | 58 | 123 | 0.0 | 1.0 | 0.00 | 0.00 | 0.00 | 91 | 1023.2 |
| 20260902075201 | 58 | 121 | 0.0 | 1.0 | 0.00 | 0.00 | 0.00 | 91 | 1023.2 |
| 20260902074703 | 58 | 120 | 0.0 | 0.0 | 0.00 | 0.00 | 0.00 | 91 | 1023.2 |
| 20260902074427 | 58 | 121 | 0.0 | 0.0 | 0.00 | 0.00 | 0.00 | 91 | 1023.2 |
| 20260902073653 | 58 | 120 | 0.0 | 0.0 | 0.00 | 0.00 | 0.00 | 91 | 1023.2 |
| 20260902073423 | 58 | 120 | 0.0 | 1.0 | 0.00 | 0.00 | 0.00 | 91 | 1023.2 |
| 20260902072649 | 58 | 120 | 0.0 | 1.0 | 0.00 | 0.00 | 0.00 | 91 | 1023.2 |
| 20260902072150 | 58 | 120 | 0.0 | 1.0 | 0.00 | 0.00 | 0.00 | 90 | 1023.1 |
| 20260902071643 | 58 | 120 | 0.0 | 1.0 | 0.00 | 0.00 | 0.00 | 90 | 1023.2 |
| 20260902071140 | 58 | 120 | 0.0 | 0.0 | 0.00 | 0.00 | 0.00 | 90 | 1023.1 |
| 20260902070639 | 58 | 121 | 0.0 | 2.0 | 0.00 | 0.00 | 0.00 | 90 | 1023.1 |
| 20260902070140 | 58 | 120 | 0.0 | 2.0 | 0.00 | 0.00 | 0.00 | 90 | 1023.2 |
| 20260902065641 | 59 | 120 | 0.0 | 3.0 | 0.00 | 0.00 | 0.00 | 89 | 1023.2 |
| 20260902065142 | 59 | 120 | 0.0 | 3.0 | 0.00 | 0.00 | 0.00 | 89 | 1023.2 |
| 20260902064634 | 59 | 103 | 0.0 | 1.0 | 0.00 | 0.00 | 0.00 | 88 | 1023.4 |
| 20260902064407 | 59 | 104 | 0.0 | 0.0 | 0.00 | 0.00 | 0.00 | 88 | 1023.2 |
| 20260902063634 | 59 | 104 | 0.0 | 0.0 | 0.00 | 0.00 | 0.00 | 87 | 1023.4 |
| 20260902063135 | 60 | 103 | 0.0 | 0.0 | 0.00 | 0.00 | 0.00 | 87 | 1023.4 |
| 20260902062635 | 60 | 104 | 0.0 | 6.0 | 0.00 | 0.00 | 0.00 | 86 | 1023.4 |
| 20260902062136 | 60 | 104 | 1.0 | 6.0 | 0.00 | 0.00 | 0.00 | 86 | 1023.4 |
| 20260902061632 | 61 | 104 | 2.0 | 7.0 | 0.00 | 0.00 | 0.00 | 86 | 1023.2 |
| 20260902060631 | 60 | 85 | 2.0 | 5.0 | 0.00 | 0.00 | 0.00 | 87 | 1023.5 |
| 20260902060131 | 60 | 92 | 1.0 | 5.0 | 0.00 | 0.00 | 0.00 | 87 | 1023.5 |
| 20260902055629 | 60 | 104 | 1.0 | 4.0 | 0.00 | 0.00 | 0.00 | 88 | 1023.5 |
| 20260902055129 | 60 | 101 | 2.0 | 4.0 | 0.00 | 0.00 | 0.00 | 88 | 1023.5 |
| 20260902054855 | 60 | 93 | 2.0 | 4.0 | 0.00 | 0.00 | 0.00 | 88 | 1023.5 |
| 20260902054125 | 60 | 102 | 1.0 | 3.0 | 0.00 | 0.00 | 0.00 | 89 | 1023.5 |
| 20260902053623 | 60 | 105 | 0.0 | 3.0 | 0.00 | 0.00 | 0.00 | 88 | 1023.5 |
| 20260902053123 | 60 | 112 | 0.0 | 3.0 | 0.00 | 0.00 | 0.00 | 88 | 1023.4 |
| 20260902052623 | 60 | 93 | 0.0 | 3.0 | 0.00 | 0.00 | 0.00 | 88 | 1023.4 |
| 20260902052125 | 60 | 94 | 0.0 | 2.0 | 0.00 | 0.00 | 0.00 | 88 | 1023.4 |
| 20260902051621 | 60 | 94 | 0.0 | 2.0 | 0.00 | 0.00 | 0.00 | 87 | 1023.5 |
| 20260902051119 | 60 | 93 | 0.0 | 2.0 | 0.00 | 0.00 | 0.00 | 87 | 1023.4 |
| 20260902050117 | 60 | 93 | 0.0 | 3.0 | 0.00 | 0.00 | 0.00 | 87 | 1023.4 |
| 20260902045618 | 60 | 122 | 0.0 | 1.0 | 0.00 | 0.00 | 0.00 | 87 | 1023.4 |
| 20260902045117 | 61 | 122 | 0.0 | 0.0 | 0.00 | 0.00 | 0.00 | 86 | 1023.5 |
| 20260902044610 | 61 | 122 | 0.0 | 2.0 | 0.00 | 0.00 | 0.00 | 86 | 1023.4 |
| 20260902044341 | 61 | 122 | 0.0 | 2.0 | 0.00 | 0.00 | 0.00 | 86 | 1023.4 |
| 20260902043839 | 61 | 122 | 0.0 | 3.0 | 0.00 | 0.00 | 0.00 | 85 | 1023.4 |
| 20260902043105 | 61 | 122 | 0.0 | 3.0 | 0.00 | 0.00 | 0.00 | 85 | 1023.2 |
| 20260902042605 | 61 | 92 | 0.0 | 3.0 | 0.00 | 0.00 | 0.00 | 85 | 1023.2 |
| 20260902042058 | 61 | 100 | 0.0 | 3.0 | 0.00 | 0.00 | 0.00 | 86 | 1023.1 |
| 20260902041558 | 61 | 100 | 0.0 | 3.0 | 0.00 | 0.00 | 0.00 | 86 | 1023.1 |
| 20260902041059 | 61 | 235 | 0.0 | 1.0 | 0.00 | 0.00 | 0.00 | 86 | 1023.0 |
| 20260902040556 | 61 | 236 | 0.0 | 0.0 | 0.00 | 0.00 | 0.00 | 86 | 1023.0 |
| 20260902040057 | 61 | 235 | 0.0 | 0.0 | 0.00 | 0.00 | 0.00 | 86 | 1023.0 |
| 20260902035557 | 61 | 236 | 0.0 | 0.0 | 0.00 | 0.00 | 0.00 | 85 | 1022.9 |
| 20260902035051 | 61 | 235 | 0.0 | 0.0 | 0.00 | 0.00 | 0.00 | 84 | 1022.9 |
| 20260902034549 | 62 | 235 | 0.0 | 0.0 | 0.00 | 0.00 | 0.00 | 83 | 1022.8 |
| 20260902034047 | 62 | 235 | 0.0 | 0.0 | 0.00 | 0.00 | 0.00 | 83 | 1022.8 |
| 20260902033545 | 62 | 235 | 0.0 | 0.0 | 0.00 | 0.00 | 0.00 | 82 | 1022.6 |
| 20260902033316 | 63 | 236 | 0.0 | 0.0 | 0.00 | 0.00 | 0.00 | 82 | 1022.5 |
| 20260902032811 | 63 | 235 | 0.0 | 0.0 | 0.00 | 0.00 | 0.00 | 81 | 1022.4 |
| 20260902032037 | 63 | 235 | 0.0 | 0.0 | 0.00 | 0.00 | 0.00 | 81 | 1022.4 |
| 20260902031809 | 64 | 235 | 0.0 | 0.0 | 0.00 | 0.00 | 0.00 | 80 | 1022.3 |
| 20260902031039 | 64 | 235 | 0.0 | 0.0 | 0.00 | 0.00 | 0.00 | 79 | 1022.3 |
| 20260902030540 | 64 | 235 | 0.0 | 0.0 | 0.00 | 0.00 | 0.00 | 79 | 1022.3 |
| 20260902030041 | 65 | 235 | 0.0 | 0.0 | 0.00 | 0.00 | 0.00 | 77 | 1022.2 |
| 20260902025534 | 65 | 235 | 0.0 | 0.0 | 0.00 | 0.00 | 0.00 | 77 | 1022.0 |
| 20260902025034 | 65 | 235 | 0.0 | 0.0 | 0.00 | 0.00 | 0.00 | 76 | 1022.0 |
| 20260902024536 | 66 | 235 | 0.0 | 0.0 | 0.00 | 0.00 | 0.00 | 74 | 1022.0 |
| 20260902024306 | 66 | 235 | 0.0 | 0.0 | 0.00 | 0.00 | 0.00 | 73 | 1021.9 |
| 20260902023533 | 67 | 235 | 0.0 | 0.0 | 0.00 | 0.00 | 0.00 | 72 | 1021.8 |
| 20260902023032 | 67 | 235 | 0.0 | 0.0 | 0.00 | 0.00 | 0.00 | 71 | 1021.8 |
| 20260902022530 | 68 | 235 | 0.0 | 0.0 | 0.00 | 0.00 | 0.00 | 69 | 1021.7 |
| 20260902022031 | 69 | 235 | 0.0 | 0.0 | 0.00 | 0.00 | 0.00 | 67 | 1021.6 |
| 20260902021531 | 69 | 235 | 0.0 | 0.0 | 0.00 | 0.00 | 0.00 | 66 | 1021.7 |
| 20260902021029 | 70 | 235 | 0.0 | 0.0 | 0.00 | 0.00 | 0.00 | 65 | 1021.6 |
| 20260902020527 | 71 | 235 | 0.0 | 0.0 | 0.00 | 0.00 | 0.00 | 63 | 1021.6 |
| 20260902020257 | 71 | 235 | 0.0 | 3.0 | 0.00 | 0.00 | 0.00 | 61 | 1021.6 |
| 20260902015523 | 72 | 235 | 0.0 | 3.0 | 0.00 | 0.00 | 0.00 | 60 | 1021.6 |
| 20260902015256 | 72 | 252 | 0.0 | 6.0 | 0.00 | 0.00 | 0.00 | 59 | 1021.5 |
| 20260902014525 | 73 | 252 | 0.0 | 6.0 | 0.00 | 0.00 | 0.00 | 58 | 1021.5 |
| 20260902014024 | 73 | 251 | 1.0 | 6.0 | 0.00 | 0.00 | 0.00 | 57 | 1021.5 |
| 20260902013522 | 73 | 252 | 1.0 | 6.0 | 0.00 | 0.00 | 0.00 | 56 | 1021.5 |
| 20260902013022 | 74 | 231 | 1.0 | 7.0 | 0.00 | 0.00 | 0.00 | 56 | 1021.7 |
| 20260902012519 | 74 | 234 | 1.0 | 7.0 | 0.00 | 0.00 | 0.00 | 56 | 1021.6 |
| 20260902012248 | 74 | 262 | 1.0 | 7.0 | 0.00 | 0.00 | 0.00 | 55 | 1021.6 |
| 20260902011018 | 75 | 248 | 2.0 | 7.0 | 0.00 | 0.00 | 0.00 | 53 | 1021.5 |
| 20260902010517 | 76 | 251 | 2.0 | 7.0 | 0.00 | 0.00 | 0.00 | 53 | 1021.5 |
| 20260902010019 | 77 | 250 | 1.0 | 6.0 | 0.00 | 0.00 | 0.00 | 52 | 1021.6 |
| 20260902005519 | 77 | 240 | 1.0 | 6.0 | 0.00 | 0.00 | 0.00 | 52 | 1021.6 |
| 20260902005017 | 77 | 172 | 2.0 | 6.0 | 0.00 | 0.00 | 0.00 | 52 | 1021.6 |
| 20260902004517 | 76 | 212 | 1.0 | 7.0 | 0.00 | 0.00 | 0.00 | 52 | 1021.7 |
| 20260902004017 | 76 | 261 | 1.0 | 7.0 | 0.00 | 0.00 | 0.00 | 52 | 1021.6 |
| 20260902003516 | 76 | 261 | 1.0 | 8.0 | 0.00 | 0.00 | 0.00 | 52 | 1021.7 |
| 20260902003244 | 77 | 250 | 2.0 | 8.0 | 0.00 | 0.00 | 0.00 | 50 | 1021.7 |
| 20260902002513 | 78 | 195 | 2.0 | 8.0 | 0.00 | 0.00 | 0.00 | 50 | 1021.8 |
| 20260902002006 | 78 | 252 | 2.0 | 8.0 | 0.00 | 0.00 | 0.00 | 49 | 1021.8 |
| 20260902001507 | 78 | 223 | 2.0 | 7.0 | 0.00 | 0.00 | 0.00 | 50 | 1021.7 |
| 20260902001006 | 78 | 212 | 1.0 | 6.0 | 0.00 | 0.00 | 0.00 | 49 | 1021.8 |
| 20260902000508 | 79 | 252 | 2.0 | 9.0 | 0.00 | 0.00 | 0.00 | 48 | 1021.8 |
| 20260902000007 | 78 | 182 | 2.0 | 9.0 | 0.00 | 0.00 | 0.00 | 49 | 1021.8 |
| 20260901235508 | 78 | 205 | 2.0 | 9.0 | 0.00 | 0.00 | 0.00 | 50 | 1021.7 |